カタログに戻る

HULIANWANG DIGUI-186

運用中科学LEO
NORAD 100211·PAYLOAD·🇨🇳 China

打ち上げ Aug 4, 2026 から Wenchang Space Launch Site

Loading…

次のパス (今後24時間)

TLE

最新Source: Space-Track

元期: Sep 14, 2026, 22:32 UTC

1 A0211U 26176J   26257.93939043 -.00000084  00000-0  86690-4 0  9994
2 A0211  49.9936 243.6354 0000205   6.0424 354.0451 13.29327870  5566

AllMySatでHULIANWANG DIGUI-186をリアルタイム追跡

Download on the App Store